• En España
  • Lista de países
  • Para 7 días
  • Temperatura del agua
  • Mapa Satelital
  • El tiempo en el mapa
  • Informadores
  • user-avatar
    Iniciar sesión

    Tiempo cada hora Kekeshevo

    Hoy, 19 Julio, Jueves

    Tiempo Temperatura Precipitaciones Viento Presión Humedad
    00:00 +18°C° 0 mm 3 mps 735 mmHg 93%
    01:00 +18°C° 0 mm 3 mps 735 mmHg 94%
    02:00 +18°C° 0 mm 3 mps 735 mmHg 95%
    03:00 +18°C° 0 mm 3 mps 735 mmHg 95%
    04:00 +18°C° 0 mm 3 mps 735 mmHg 95%
    05:00 +18°C° 0 mm 3 mps 735 mmHg 95%
    06:00 +18°C° 0,1 mm 3 mps 735 mmHg 93%
    07:00 +19°C° 0,1 mm 4 mps 735 mmHg 92%
    08:00 +19°C° 0,1 mm 4 mps 735 mmHg 91%
    09:00 +20°C° 0,1 mm 4 mps 735 mmHg 88%
    10:00 +20°C° 0,1 mm 4 mps 735 mmHg 84%
    11:00 +21°C° 0,1 mm 4 mps 735 mmHg 81%
    12:00 +22°C° 0,3 mm 4 mps 735 mmHg 81%
    13:00 +22°C° 0,3 mm 4 mps 735 mmHg 80%
    14:00 +23°C° 0,3 mm 4 mps 735 mmHg 80%
    15:00 +23°C° 0,4 mm 4 mps 735 mmHg 82%
    16:00 +22°C° 0,4 mm 4 mps 735 mmHg 84%
    17:00 +22°C° 0,4 mm 4 mps 734 mmHg 87%
    18:00 +21°C° 0,2 mm 3 mps 734 mmHg 89%
    19:00 +21°C° 0,2 mm 3 mps 734 mmHg 91%
    20:00 +20°C° 0,2 mm 3 mps 734 mmHg 94%
    21:00 +20°C° 0,3 mm 3 mps 734 mmHg 95%
    22:00 +19°C° 0,3 mm 3 mps 734 mmHg 96%
    23:00 +19°C° 0,3 mm 3 mps 734 mmHg 97%

    Mañana, 20 Julio, Viernes

    Tiempo Temperatura Precipitaciones Viento Presión Humedad
    00:00 +19°C° 0,1 mm 3 mps 734 mmHg 97%
    01:00 +19°C° 0,1 mm 3 mps 734 mmHg 96%
    02:00 +19°C° 0,1 mm 3 mps 734 mmHg 96%
    03:00 +19°C° 0,1 mm 3 mps 734 mmHg 96%
    04:00 +19°C° 0,1 mm 3 mps 734 mmHg 96%
    05:00 +19°C° 0,1 mm 3 mps 733 mmHg 96%
    06:00 +19°C° 0,1 mm 3 mps 733 mmHg 96%
    07:00 +19°C° 0,1 mm 3 mps 733 mmHg 96%
    08:00 +19°C° 0,1 mm 3 mps 734 mmHg 95%
    09:00 +19°C° 0,1 mm 3 mps 734 mmHg 94%
    10:00 +20°C° 0,1 mm 3 mps 734 mmHg 93%
    11:00 +20°C° 0,1 mm 3 mps 734 mmHg 92%
    12:00 +21°C° 0,2 mm 3 mps 734 mmHg 91%
    13:00 +21°C° 0,2 mm 3 mps 733 mmHg 91%
    14:00 +21°C° 0,2 mm 3 mps 733 mmHg 90%
    15:00 +21°C° 0,2 mm 3 mps 733 mmHg 89%
    16:00 +21°C° 0,2 mm 3 mps 733 mmHg 89%
    17:00 +21°C° 0,2 mm 3 mps 733 mmHg 88%
    18:00 +21°C° 0 mm 3 mps 733 mmHg 91%
    19:00 +20°C° 0 mm 3 mps 733 mmHg 93%
    20:00 +19°C° 0 mm 2 mps 733 mmHg 96%
    21:00 +19°C° 0,1 mm 2 mps 733 mmHg 97%
    22:00 +19°C° 0,1 mm 2 mps 732 mmHg 97%
    23:00 +19°C° 0,1 mm 2 mps 732 mmHg 98%

    Pasado mañana, 21 Julio, Sábado

    Tiempo Temperatura Precipitaciones Viento Presión Humedad
    00:00 +19°C° 0 mm 2 mps 732 mmHg 99%
    01:00 +20°C° 0 mm 1 mps 732 mmHg 99%
    02:00 +20°C° 0 mm 1 mps 732 mmHg 99%
    03:00 +20°C° 0 mm 1 mps 732 mmHg 99%
    04:00 +20°C° 0 mm 1 mps 733 mmHg 98%
    05:00 +20°C° 0 mm 1 mps 733 mmHg 98%
    06:00 +21°C° 0 mm 1 mps 733 mmHg 96%
    07:00 +22°C° 0 mm 1 mps 733 mmHg 94%
    08:00 +23°C° 0 mm 1 mps 733 mmHg 93%
    09:00 +24°C° 0,3 mm 1 mps 733 mmHg 89%
    10:00 +25°C° 0,3 mm 1 mps 733 mmHg 86%
    11:00 +26°C° 0,3 mm 1 mps 733 mmHg 83%
    12:00 +26°C° 0,6 mm 1 mps 733 mmHg 80%
    13:00 +27°C° 0,6 mm 1 mps 733 mmHg 78%
    14:00 +27°C° 0,6 mm 2 mps 733 mmHg 76%
    15:00 +27°C° 0,7 mm 1 mps 733 mmHg 79%
    16:00 +27°C° 0,7 mm 1 mps 733 mmHg 81%
    17:00 +26°C° 0,7 mm 1 mps 732 mmHg 84%
    18:00 +25°C° 0,6 mm 1 mps 732 mmHg 88%
    19:00 +24°C° 0,6 mm 1 mps 732 mmHg 91%
    20:00 +23°C° 0,6 mm 1 mps 732 mmHg 95%
    21:00 +22°C° 0,6 mm 1 mps 732 mmHg 96%
    22:00 +22°C° 0,6 mm 1 mps 732 mmHg 96%
    23:00 +21°C° 0,6 mm 1 mps 732 mmHg 97%

    22 Julio, Domingo

    Tiempo Temperatura Precipitaciones Viento Presión Humedad
    00:00 +21°C° 0,4 mm 1 mps 732 mmHg 97%
    01:00 +21°C° 0,4 mm 1 mps 732 mmHg 97%
    02:00 +20°C° 0,4 mm 1 mps 732 mmHg 97%
    03:00 +20°C° 0,3 mm 1 mps 732 mmHg 98%
    04:00 +20°C° 0,3 mm 1 mps 732 mmHg 98%
    05:00 +21°C° 0,3 mm 1 mps 732 mmHg 98%
    06:00 +21°C° 0,1 mm 2 mps 732 mmHg 95%
    07:00 +23°C° 0,1 mm 2 mps 732 mmHg 92%
    08:00 +24°C° 0,1 mm 2 mps 732 mmHg 89%
    09:00 +25°C° 0,4 mm 2 mps 732 mmHg 83%
    10:00 +27°C° 0,4 mm 2 mps 732 mmHg 77%
    11:00 +28°C° 0,4 mm 2 mps 732 mmHg 71%
    12:00 +28°C° 0,8 mm 2 mps 732 mmHg 71%
    13:00 +28°C° 0,8 mm 2 mps 732 mmHg 70%
    14:00 +29°C° 0,8 mm 2 mps 732 mmHg 70%
    15:00 +28°C° 0,7 mm 2 mps 732 mmHg 71%
    16:00 +28°C° 0,7 mm 2 mps 732 mmHg 72%
    17:00 +28°C° 0,7 mm 2 mps 732 mmHg 74%
    18:00 +26°C° 2,7 mm 2 mps 732 mmHg 80%
    19:00 +25°C° 2,7 mm 2 mps 732 mmHg 86%
    20:00 +23°C° 2,7 mm 2 mps 732 mmHg 92%
    21:00 +22°C° 1,1 mm 1 mps 732 mmHg 93%
    22:00 +22°C° 1,1 mm 1 mps 732 mmHg 94%
    23:00 +21°C° 1,1 mm 1 mps 732 mmHg 95%

    23 Julio, Lunes

    Tiempo Temperatura Precipitaciones Viento Presión Humedad
    00:00 +21°C° 0,1 mm 1 mps 732 mmHg 96%
    01:00 +21°C° 0,1 mm 1 mps 732 mmHg 96%
    02:00 +20°C° 0,1 mm 1 mps 732 mmHg 97%
    03:00 +20°C° 0,4 mm 1 mps 732 mmHg 97%
    04:00 +20°C° 0,4 mm 1 mps 732 mmHg 98%
    05:00 +21°C° 0,4 mm 1 mps 732 mmHg 98%
    06:00 +21°C° 0,2 mm 1 mps 733 mmHg 96%
    07:00 +22°C° 0,2 mm 1 mps 733 mmHg 94%
    08:00 +23°C° 0,2 mm 1 mps 733 mmHg 92%
    09:00 +23°C° 0,2 mm 1 mps 733 mmHg 91%
    10:00 +24°C° 0,2 mm 2 mps 733 mmHg 90%
    11:00 +24°C° 0,2 mm 2 mps 733 mmHg 88%
    12:00 +24°C° 0,7 mm 2 mps 733 mmHg 87%
    13:00 +25°C° 0,7 mm 2 mps 733 mmHg 86%
    14:00 +25°C° 0,7 mm 2 mps 733 mmHg 84%
    15:00 +25°C° 0,9 mm 2 mps 733 mmHg 84%
    16:00 +25°C° 0,9 mm 2 mps 733 mmHg 85%
    17:00 +25°C° 0,9 mm 2 mps 734 mmHg 85%
    18:00 +24°C° 0,4 mm 2 mps 734 mmHg 89%
    19:00 +23°C° 0,4 mm 2 mps 734 mmHg 92%
    20:00 +21°C° 0,4 mm 2 mps 734 mmHg 96%
    21:00 +21°C° 0,2 mm 2 mps 734 mmHg 97%
    22:00 +20°C° 0,2 mm 2 mps 734 mmHg 97%
    23:00 +20°C° 0,2 mm 2 mps 734 mmHg 98%

    24 Julio, Martes

    Tiempo Temperatura Precipitaciones Viento Presión Humedad
    00:00 +19°C° 0 mm 2 mps 734 mmHg 98%
    01:00 +19°C° 0 mm 2 mps 735 mmHg 98%
    02:00 +19°C° 0 mm 2 mps 735 mmHg 98%
    03:00 +19°C° 0,3 mm 2 mps 735 mmHg 98%
    04:00 +19°C° 0,3 mm 2 mps 735 mmHg 98%
    05:00 +19°C° 0,3 mm 3 mps 735 mmHg 98%
    06:00 +19°C° 0,5 mm 3 mps 735 mmHg 97%
    07:00 +20°C° 0,5 mm 3 mps 735 mmHg 95%
    08:00 +20°C° 0,5 mm 3 mps 736 mmHg 94%
    09:00 +21°C° 0,3 mm 2 mps 736 mmHg 90%
    10:00 +23°C° 0,3 mm 2 mps 736 mmHg 86%
    11:00 +24°C° 0,3 mm 2 mps 736 mmHg 83%
    12:00 +24°C° 0,5 mm 2 mps 736 mmHg 84%
    13:00 +24°C° 0,5 mm 2 mps 736 mmHg 85%
    14:00 +24°C° 0,5 mm 2 mps 736 mmHg 86%
    15:00 +24°C° 1,2 mm 2 mps 736 mmHg 88%
    16:00 +24°C° 1,2 mm 1 mps 736 mmHg 91%
    17:00 +23°C° 1,2 mm 1 mps 736 mmHg 93%
    18:00 +23°C° 0,5 mm 1 mps 736 mmHg 94%
    19:00 +22°C° 0,5 mm 1 mps 737 mmHg 95%
    20:00 +21°C° 0,5 mm 1 mps 737 mmHg 96%
    21:00 +21°C° 0,1 mm 1 mps 737 mmHg 96%
    22:00 +20°C° 0,1 mm 1 mps 737 mmHg 97%
    23:00 +20°C° 0,1 mm 1 mps 737 mmHg 97%
    Mostrar más